Newton, KS

11:19 PM CST on February 06, 2016 (GMT -0600)
Newton City County

Weather History for KEWK - August, 2013

Change the Weather History Date:

Monday, August 26, 2013

  Actual Average Record
Temperature  
Mean Temperature 83 °F -  
Max Temperature 93 °F 86 °F 102 °F (1999)
Min Temperature 73 °F 64 °F 59 °F (2008)
Cooling Degree Days 18    
Growing Degree Days 33 (Base 50)    
Moisture  
Dew Point 66 °F    
Average Humidity 60    
Maximum Humidity 83    
Minimum Humidity 38    
Precipitation  
Precipitation 0.00 in - - ()
Sea Level Pressure  
Sea Level Pressure 30.15 in    
Wind  
Wind Speed 11 mph (South)    
Max Wind Speed 21 mph    
Max Gust Speed 28 mph    
Visibility 10 miles    
Events      
Averages and records for this station are not official NWS values.
T = Trace of Precipitation, MM = Missing Value Source: NWS Daily Summary

Daily Weather History Graph

Daily Weather History Graph

Search for Another Location

Airport or City:

Trip Planner

Search our weather history database for the weather conditions in past years. The results will help you decide how hot, cold, wet, or windy it might be!

Date:

Astronomy

Aug. 26, 2013 Rise Set
Actual Time 6:53 AM CDT 8:07 PM CDT
Civil Twilight 6:26 AM CDT 8:34 PM CDT
Nautical Twilight 5:54 AM CDT 9:06 PM CDT
Astronomical Twilight 5:19 AM CDT 9:40 PM CDT
Moon 11:25 PM CDT (8/26) 12:50 PM CDT (8/26)
Length of Visible Light 14h 07m
Length of Day
13h 13m
Waning Gibbous, 66% of the Moon is Illuminated
Aug 26
Waning Gibbous
Aug 28
Last Quarter
Sep 5
New
Sep 12
First Quarter
Sep 19
Full

Hourly Weather History & Observations

Time (CDT) Temp. Heat Index Dew Point Humidity Pressure Visibility Wind Dir Wind Speed Gust Speed Precip Events Conditions
12:15 AM 73.4 °F - 66.2 °F 78% 30.18 in 10.0 mi SSE 8.1 mph - N/A   Clear
12:35 AM 73.4 °F - 66.2 °F 78% 30.18 in 10.0 mi SSE 9.2 mph - N/A   Clear
12:55 AM 73.4 °F - 66.2 °F 78% 30.19 in 10.0 mi SSE 6.9 mph - N/A   Clear
1:15 AM 73.4 °F - 68.0 °F 83% 30.18 in 10.0 mi South 9.2 mph - N/A   Clear
1:35 AM 73.4 °F - 68.0 °F 83% 30.19 in 10.0 mi South 8.1 mph - N/A   Clear
1:55 AM 73.4 °F - 66.2 °F 78% 30.18 in 10.0 mi South 8.1 mph - N/A   Clear
2:15 AM 73.4 °F - 66.2 °F 78% 30.18 in 10.0 mi SSE 6.9 mph - N/A   Clear
2:35 AM 73.4 °F - 66.2 °F 78% 30.18 in 10.0 mi South 8.1 mph - N/A   Clear
2:55 AM 73.4 °F - 66.2 °F 78% 30.18 in 10.0 mi South 9.2 mph - N/A   Clear
3:15 AM 73.4 °F - 66.2 °F 78% 30.18 in 10.0 mi South 8.1 mph - N/A   Clear
3:35 AM 73.4 °F - 68.0 °F 83% 30.18 in 10.0 mi South 9.2 mph - N/A   Clear
3:55 AM 73.4 °F - 68.0 °F 83% 30.18 in 10.0 mi South 8.1 mph - N/A   Clear
4:15 AM 73.4 °F - 66.2 °F 78% 30.17 in 10.0 mi South 9.2 mph - N/A   Clear
4:35 AM 73.4 °F - 66.2 °F 78% 30.17 in 10.0 mi South 8.1 mph - N/A   Clear
4:55 AM 73.4 °F - 66.2 °F 78% 30.17 in 10.0 mi South 8.1 mph - N/A   Clear
5:15 AM 73.4 °F - 66.2 °F 78% 30.17 in 10.0 mi South 9.2 mph - N/A   Clear
5:35 AM 73.4 °F - 66.2 °F 78% 30.17 in 10.0 mi South 9.2 mph - N/A   Clear
5:55 AM 73.4 °F - 66.2 °F 78% 30.17 in 10.0 mi South 9.2 mph - N/A   Clear
6:15 AM 73.4 °F - 66.2 °F 78% 30.18 in 10.0 mi South 9.2 mph - N/A   Clear
6:35 AM 73.4 °F - 66.2 °F 78% 30.18 in 10.0 mi South 10.4 mph - N/A   Clear
6:55 AM 73.4 °F - 66.2 °F 78% 30.19 in 10.0 mi South 10.4 mph - N/A   Clear
7:15 AM 73.4 °F - 66.2 °F 78% 30.19 in 10.0 mi SSW 9.2 mph - N/A   Clear
7:35 AM 73.4 °F - 66.2 °F 78% 30.19 in 10.0 mi SSW 9.2 mph - N/A   Clear
7:55 AM 75.2 °F - 66.2 °F 73% 30.19 in 10.0 mi SSW 10.4 mph - N/A   Clear
8:15 AM 75.2 °F - 66.2 °F 73% 30.19 in 10.0 mi South 11.5 mph - N/A   Clear
8:35 AM 77.0 °F - 66.2 °F 69% 30.19 in 10.0 mi SSW 13.8 mph - N/A   Clear
8:55 AM 78.8 °F - 66.2 °F 65% 30.19 in 10.0 mi SSW 16.1 mph 21.9 mph N/A   Clear
9:15 AM 80.6 °F 82.7 °F 66.2 °F 61% 30.19 in 10.0 mi SSW 19.6 mph 23.0 mph N/A   Clear
9:35 AM 80.6 °F 82.7 °F 66.2 °F 61% 30.19 in 10.0 mi SSW 19.6 mph 23.0 mph N/A   Clear
9:55 AM 82.4 °F 84.6 °F 66.2 °F 58% 30.19 in 10.0 mi SSW 17.3 mph 23.0 mph N/A   Clear
10:15 AM 82.4 °F 84.6 °F 66.2 °F 58% 30.19 in 10.0 mi SSW 17.3 mph 21.9 mph N/A   Clear
10:35 AM 84.2 °F 86.6 °F 66.2 °F 55% 30.19 in 10.0 mi SSW 16.1 mph 21.9 mph N/A   Clear
10:55 AM 84.2 °F 86.6 °F 66.2 °F 55% 30.19 in 10.0 mi SSW 15.0 mph 25.3 mph N/A   Clear
11:15 AM 86.0 °F 88.2 °F 66.2 °F 51% 30.19 in 10.0 mi SSW 18.4 mph 24.2 mph N/A   Clear
11:35 AM 87.8 °F 90.4 °F 66.2 °F 49% 30.19 in 10.0 mi SW 17.3 mph 24.2 mph N/A   Clear
11:55 AM 89.6 °F 92.2 °F 66.2 °F 46% 30.18 in 10.0 mi SSW 18.4 mph - N/A   Clear
12:15 PM 89.6 °F 92.2 °F 66.2 °F 46% 30.18 in 10.0 mi SSW 18.4 mph 21.9 mph N/A   Clear
12:35 PM 89.6 °F 92.2 °F 66.2 °F 46% 30.17 in 10.0 mi SW 16.1 mph 21.9 mph N/A   Clear
12:55 PM 91.4 °F 94.0 °F 66.2 °F 43% 30.16 in 10.0 mi SW 16.1 mph 20.7 mph N/A   Clear
1:15 PM 91.4 °F 94.0 °F 66.2 °F 43% 30.16 in 10.0 mi SSW 17.3 mph 24.2 mph N/A   Clear
1:35 PM 91.4 °F 94.0 °F 66.2 °F 43% 30.15 in 10.0 mi SSW 17.3 mph 21.9 mph N/A   Clear
1:55 PM 91.4 °F 94.0 °F 66.2 °F 43% 30.15 in 10.0 mi South 19.6 mph 24.2 mph N/A   Clear
2:15 PM 91.4 °F 94.0 °F 66.2 °F 43% 30.15 in 10.0 mi South 17.3 mph 26.5 mph N/A   Clear
2:35 PM 91.4 °F 94.0 °F 66.2 °F 43% 30.14 in 10.0 mi South 16.1 mph 25.3 mph N/A   Clear
2:55 PM 91.4 °F 93.2 °F 64.4 °F 41% - 10.0 mi SSW 17.3 mph 24.2 mph N/A   Clear
3:15 PM 91.4 °F 94.0 °F 66.2 °F 43% 30.13 in 10.0 mi SSW 20.7 mph 27.6 mph N/A   Clear
3:35 PM 93.2 °F 94.9 °F 64.4 °F 38% 30.12 in 10.0 mi SSW 16.1 mph 26.5 mph N/A   Clear
3:55 PM 91.4 °F 93.2 °F 64.4 °F 41% 30.12 in 10.0 mi South 17.3 mph 23.0 mph N/A   Clear
4:15 PM 91.4 °F 93.2 °F 64.4 °F 41% 30.11 in 10.0 mi South 17.3 mph 20.7 mph N/A   Clear
4:35 PM 91.4 °F 93.2 °F 64.4 °F 41% 30.11 in 10.0 mi South 16.1 mph 20.7 mph N/A   Clear
4:55 PM 91.4 °F 93.2 °F 64.4 °F 41% 30.10 in 10.0 mi South 20.7 mph 25.3 mph N/A   Clear
5:15 PM 91.4 °F 93.2 °F 64.4 °F 41% 30.10 in 10.0 mi South 16.1 mph 21.9 mph N/A   Clear
5:35 PM 91.4 °F 93.2 °F 64.4 °F 41% 30.10 in 10.0 mi SSW 16.1 mph 23.0 mph N/A   Clear
5:55 PM 91.4 °F 93.2 °F 64.4 °F 41% 30.10 in 10.0 mi SSW 18.4 mph 23.0 mph N/A   Clear
6:15 PM 89.6 °F 91.1 °F 64.4 °F 43% 30.10 in 10.0 mi SSW 18.4 mph 21.9 mph N/A   Clear
6:35 PM 89.6 °F 91.1 °F 64.4 °F 43% 30.09 in 10.0 mi South 15.0 mph 21.9 mph N/A   Clear
6:55 PM 89.6 °F 91.1 °F 64.4 °F 43% 30.09 in 10.0 mi South 13.8 mph - N/A   Clear
7:15 PM 87.8 °F 89.4 °F 64.4 °F 46% 30.09 in 10.0 mi South 13.8 mph - N/A   Clear
7:35 PM 86.0 °F 87.3 °F 64.4 °F 48% 30.10 in 10.0 mi South 9.2 mph - N/A   Clear
7:55 PM 84.2 °F 85.6 °F 64.4 °F 51% 30.10 in 10.0 mi SSE 6.9 mph - N/A   Clear
8:15 PM 82.4 °F 83.9 °F 64.4 °F 54% 30.10 in 10.0 mi SSE 10.4 mph - N/A   Clear
8:35 PM 82.4 °F 83.9 °F 64.4 °F 54% 30.10 in 10.0 mi South 10.4 mph - N/A   Clear
8:55 PM 80.6 °F 82.3 °F 64.4 °F 58% 30.10 in 10.0 mi SSE 11.5 mph - N/A   Clear
9:15 PM 80.6 °F 82.3 °F 64.4 °F 58% 30.10 in 10.0 mi SSE 11.5 mph - N/A   Clear
9:35 PM 80.6 °F 82.3 °F 64.4 °F 58% 30.11 in 10.0 mi South 10.4 mph - N/A   Clear
9:55 PM 78.8 °F - 64.4 °F 61% 30.11 in 10.0 mi South 10.4 mph - N/A   Clear
10:15 PM 78.8 °F - 64.4 °F 61% 30.11 in 10.0 mi South 11.5 mph - N/A   Clear
10:35 PM 78.8 °F - 64.4 °F 61% - 10.0 mi South 9.2 mph - N/A   Clear
10:55 PM 77.0 °F - 64.4 °F 65% 30.11 in 10.0 mi South 8.1 mph - N/A   Clear
11:15 PM 77.0 °F - 64.4 °F 65% 30.11 in 10.0 mi South 10.4 mph - N/A   Clear
11:35 PM 77.0 °F - 64.4 °F 65% 30.10 in 10.0 mi South 10.4 mph - N/A   Clear
11:55 PM 77.0 °F - 64.4 °F 65% 30.10 in 10.0 mi South 10.4 mph - N/A   Clear